Wind_Speed
23 21 19 18 16 17 18 19 18 18 20 21 21 21 23 21 19 19 18 18 18 19 19 18 18 19 20 20 21 21 22 22 22 22 22 23 23 23 24 24 24 24 24 24
24 21 20 20 18 18 18 18 19 19 20 21 21 23 23 21 21 20 20 19 20 20 21 21 20 21 22 22 22 22 23 23 23 23 24 24 24 24 25 25 25 26 25 25
23 21 23 22 21 20 19 19 20 20 23 25 25 25 23 21 21 21 21 20 21 22 22 22 22 22 23 23 23 24 24 25 25 25 25 25 25 26 26 26 26 26 26 26
23 22 23 24 22 23 23 22 22 23 24 26 26 26 25 24 23 23 22 22 22 22 23 23 23 24 24 24 25 25 26 26 27 27 27 27 27 27 27 28 27 26 26 26
25 24 23 22 23 24 25 26 26 26 26 28 27 26 27 25 25 25 24 25 23 24 24 24 25 26 26 26 26 26 27 27 28 28 28 27 27 27 27 27 27 26 27 27
26 25 23 24 24 25 26 27 27 26 27 28 27 27 28 27 27 26 27 25 24 25 26 26 26 27 27 27 27 27 28 28 29 28 28 28 27 27 27 27 28 28 29 29
27 25 26 25 25 26 26 28 29 29 30 30 30 29 29 28 28 28 28 29 28 27 27 28 29 29 29 29 29 29 29 30 29 28 28 28 28 28 28 29 29 29 29 29
28 28 28 28 28 29 29 30 30 31 32 32 32 31 31 30 30 30 30 31 30 29 29 29 30 30 30 30 30 30 31 31 30 29 29 28 28 29 30 30 29 29 30 30
28 29 30 30 30 29 30 31 32 32 32 33 33 32 32 31 31 31 31 31 30 29 30 30 31 32 31 31 31 31 32 31 31 30 30 30 30 30 30 30 30 30 31 31
29 30 30 30 30 30 30 32 32 32 32 32 32 32 32 32 32 32 31 32 32 30 31 31 32 32 32 32 32 32 32 32 32 32 31 31 31 31 31 31 31 31 31 31
31 31 31 31 31 32 32 32 32 32 32 32 33 33 32 31 31 31 31 32 31 31 32 32 32 33 33 33 33 33 33 32 32 32 32 32 32 32 32 32 32 32 32 32
32 31 32 32 32 31 31 31 31 32 31 31 31 32 31 31 31 31 32 32 32 32 32 32 32 32 33 33 33 33 33 33 33 33 33 33 33 33 32 31 31 31 31 31
31 31 31 32 31 30 31 32 31 31 31 31 31 31 31 31 31 32 32 32 32 32 32 33 33 32 33 33 33 33 33 33 32 33 33 33 33 33 33 32 32 32 32 31
30 31 31 32 32 31 31 31 32 31 31 31 30 30 31 31 32 32 32 32 32 32 32 32 32 32 32 32 32 32 32 32 32 32 32 32 33 33 33 33 33 32 32 32
31 31 32 32 31 30 30 30 30 30 30 30 31 31 31 31 32 31 31 31 31 31 31 31 31 31 31 32 31 32 32 33 32 32 32 33 33 33 33 33 33 32 32 32
30 31 31 31 31 31 31 31 30 30 31 31 30 31 31 31 31 31 31 30 30 30 30 30 30 30 31 31 31 32 32 32 32 32 32 33 32 32 31 32 32 32 32 33
30 30 30 29 30 31 32 31 31 31 31 31 30 31 31 31 30 31 31 30 30 30 30 30 30 30 30 30 31 31 31 31 31 32 32 32 32 32 31 31 31 31 32 32
29 29 29 29 29 30 30 31 31 32 31 31 31 31 31 30 29 29 29 29 29 29 29 29 29 29 30 30 31 31 31 31 31 31 31 31 32 32 31 32 32 32 33 32
28 28 29 29 29 29 30 30 29 29 30 30 30 30 29 28 27 28 28 28 28 28 28 29 29 29 29 30 30 31 31 31 30 29 30 30 30 31 31 32 32 32 32 32
27 27 28 28 28 28 28 28 28 28 28 29 29 29 28 28 28 28 28 27 27 27 28 28 28 28 29 29 30 29 29 29 29 29 29 29 30 29 30 30 30 30 31 30
26 26 26 27 27 27 27 27 27 27 27 27 27 27 27 27 27 27 27 27 26 27 27 27 28 28 28 29 29 28 28 29 29 29 29 29 29 28 29 29 29 29 30 30
25 25 26 25 25 25 26 26 26 26 25 25 25 25 25 25 25 26 26 26 26 27 28 28 28 28 28 29 29 29 28 29 28 28 29 29 28 28 28 29 29 29 30 30
24 24 24 24 24 25 25 25 24 24 24 23 23 23 24 24 25 25 25 25 26 26 27 27 28 28 28 28 28 28 28 28 27 27 28 28 28 27 28 28 29 29 29 30
23 22 22 22 23 24 24 23 23 22 22 22 22 22 23 24 24 24 24 24 25 26 26 27 27 27 27 27 28 28 27 27 26 27 27 27 27 28 29 29 29 28 29 29
21 21 21 21 21 22 22 21 21 21 22 22 22 22 22 22 23 23 24 24 24 25 25 25 26 26 27 27 27 27 26 26 26 26 26 27 28 28 29 28 28 29 29 29
19 20 19 18 19 19 20 20 20 20 21 21 22 22 22 21 21 22 23 23 23 24 24 23 24 25 25 26 26 26 26 26 26 26 26 26 27 27 27 27 28 28 28 28
18 19 19 18 17 17 18 19 19 19 20 20 20 21 21 21 21 22 22 23 23 24 24 23 23 23 24 25 25 26 26 26 25 25 25 25 26 26 26 27 27 27 27 27
Wind_Direction
234 236 245 245 246 249 249 248 249 255 266 274 279 282 281 283 282 284 285 284 287 290 292 295 297 297 300 303 304 304 306 306 305 304 303 303 302 301 301 300 299 298 298 298
236 235 242 245 247 249 252 254 253 249 257 266 269 272 274 280 286 284 283 283 285 288 291 292 294 295 296 298 300 302 303 304 303 302 302 301 300 300 300 300 300 298 298 298
239 240 242 242 243 245 248 253 253 252 257 262 264 267 272 276 279 279 282 282 283 285 288 293 294 295 296 297 298 301 302 302 302 301 300 300 299 298 299 299 300 299 299 298
242 241 243 244 246 248 248 249 252 254 258 261 263 270 276 277 277 278 280 281 282 283 285 289 291 292 293 295 297 299 300 301 302 302 302 300 299 300 300 299 299 299 299 298
243 243 246 248 245 245 248 249 251 254 257 260 263 269 274 277 277 278 279 279 278 280 283 285 288 290 291 293 295 297 298 298 299 300 301 300 300 300 300 299 298 298 298 299
243 241 243 246 247 249 252 254 253 252 253 258 266 268 271 274 278 278 281 276 279 283 284 285 286 288 290 291 293 294 296 297 298 298 299 299 298 298 298 298 298 297 298 299
244 242 244 245 246 248 251 253 255 257 259 260 264 268 270 275 277 278 279 276 281 282 283 284 285 286 288 289 291 293 295 295 295 296 296 296 297 297 297 298 298 298 299 300
245 242 245 247 248 248 252 254 256 257 259 263 264 266 269 273 275 276 278 278 278 279 282 283 284 286 288 288 289 291 293 294 293 293 294 294 294 295 296 297 297 299 300 299
245 245 247 249 251 253 254 256 258 259 260 262 264 268 272 274 276 275 275 278 278 279 280 283 283 285 287 288 290 291 292 292 291 291 291 291 292 293 294 294 296 298 298 298
246 246 248 251 255 255 258 258 259 261 261 263 265 269 272 273 273 275 277 279 279 279 282 283 283 284 284 286 289 290 290 290 290 289 290 291 290 290 293 294 296 298 298 297
243 246 250 251 254 257 258 259 261 263 264 266 266 269 270 272 274 275 278 279 279 282 283 283 284 284 284 286 287 288 289 288 288 289 290 291 290 290 292 294 296 297 297 297
242 247 250 253 256 259 261 262 263 265 267 268 269 269 271 273 274 276 277 278 280 282 283 284 285 285 284 286 287 287 287 288 287 287 287 289 289 289 291 293 295 297 298 298
244 248 252 254 257 260 263 264 265 266 267 268 269 270 271 273 274 275 277 278 280 282 283 284 284 285 286 287 287 287 287 288 289 288 287 287 288 289 291 292 294 296 297 298
250 253 255 257 259 262 264 265 265 265 267 268 270 271 272 273 275 275 277 278 280 282 283 284 284 286 287 287 287 287 287 288 288 288 287 288 289 288 288 291 293 295 296 296
253 255 256 258 259 262 264 266 266 268 269 270 271 271 273 275 276 276 277 278 280 281 283 284 285 286 286 287 287 288 288 288 287 287 287 288 289 289 289 291 293 294 295 296
255 257 258 258 259 261 264 265 267 268 269 270 272 274 274 275 276 276 277 278 279 281 282 283 284 286 285 286 287 288 288 288 288 288 288 288 290 290 291 292 293 294 295 297
259 259 258 260 261 262 262 263 266 267 268 268 271 273 274 275 276 276 277 278 279 281 282 282 283 284 285 287 288 289 289 289 290 290 292 292 291 291 291 292 294 296 297 297
258 259 259 260 262 263 264 264 265 267 268 269 270 272 274 274 276 277 278 279 281 282 282 282 282 283 285 286 288 289 291 291 291 291 293 294 294 293 292 292 293 295 297 297
257 260 261 262 263 263 264 264 265 266 267 268 269 270 271 273 274 276 279 280 282 283 283 282 283 284 285 286 288 289 291 292 291 292 294 295 295 294 292 292 294 295 296 297
260 261 262 263 264 264 265 266 266 267 268 268 268 269 269 271 273 276 278 280 281 283 284 284 284 285 286 287 289 289 289 291 292 294 295 296 297 296 295 295 295 296 296 297
262 262 263 263 263 264 265 265 267 269 268 269 269 268 270 271 272 275 277 279 281 283 284 285 285 286 286 286 288 288 289 291 292 293 295 296 297 297 298 298 298 299 298 298
263 263 263 262 263 264 264 265 268 269 268 267 267 268 270 271 273 275 277 280 282 283 284 285 286 287 288 288 289 290 292 293 293 294 294 296 296 297 299 300 300 300 301 302
266 265 263 262 262 263 264 265 267 267 268 267 268 271 272 272 274 277 279 281 283 285 286 287 288 288 288 289 291 292 293 294 294 295 296 297 298 299 301 301 302 302 303 304
266 266 264 263 264 264 265 267 268 268 268 269 270 271 273 275 277 278 280 282 284 285 286 287 288 289 290 289 290 290 291 293 294 294 297 299 300 301 301 302 302 302 303 304
266 266 266 265 264 264 265 266 268 268 268 269 270 272 275 277 279 281 283 285 286 286 286 287 288 290 291 290 290 290 290 291 293 295 296 298 300 302 303 302 301 302 302 302
266 265 264 265 266 267 267 266 267 269 269 270 271 273 276 279 282 283 284 286 288 289 287 288 289 290 291 291 292 293 293 293 293 294 296 299 301 302 303 302 301 301 302 302
264 265 264 264 268 269 268 268 269 269 270 271 273 274 276 280 284 286 286 287 288 289 288 287 288 290 292 293 294 295 294 292 292 294 297 298 300 302 303 303 303 303 302 302
Height
5865 5868 5870 5871 5873 5876 5877 5879 5879 5879 5877 5875 5873 5873 5872 5872 5872 5872 5871 5871 5870 5869 5867 5865 5865 5865 5863 5862 5860 5858 5856 5854 5852 5850 5848 5846 5844 5842 5840 5838 5836 5834 5832 5830
5860 5862 5864 5866 5869 5871 5872 5873 5873 5873 5872 5871 5870 5868 5867 5867 5868 5868 5867 5867 5866 5865 5864 5862 5862 5860 5859 5857 5855 5853 5851 5849 5847 5845 5843 5841 5839 5836 5834 5832 5830 5828 5826 5824
5854 5857 5859 5861 5864 5864 5866 5868 5868 5867 5867 5866 5864 5863 5862 5862 5863 5862 5862 5862 5861 5860 5859 5858 5857 5856 5854 5852 5850 5848 5846 5844 5842 5839 5837 5835 5833 5831 5829 5826 5824 5822 5820 5818
5848 5851 5853 5857 5858 5859 5860 5861 5862 5862 5860 5860 5859 5858 5858 5857 5857 5857 5856 5856 5856 5855 5854 5853 5852 5851 5849 5847 5845 5843 5840 5838 5836 5833 5831 5829 5826 5824 5822 5820 5817 5815 5813 5811
5843 5845 5847 5850 5851 5852 5853 5853 5854 5855 5855 5853 5853 5852 5852 5852 5852 5851 5851 5849 5849 5848 5847 5847 5846 5845 5843 5841 5839 5837 5834 5832 5830 5827 5825 5822 5820 5818 5815 5813 5810 5808 5806 5804
5836 5838 5841 5843 5844 5845 5847 5845 5846 5847 5847 5847 5847 5846 5845 5844 5845 5845 5844 5841 5841 5841 5840 5840 5839 5838 5836 5834 5832 5830 5828 5825 5823 5820 5818 5815 5813 5811 5808 5806 5804 5802 5799 5797
5829 5831 5833 5835 5836 5838 5840 5839 5838 5839 5840 5840 5839 5839 5838 5838 5838 5838 5836 5834 5834 5834 5832 5833 5832 5831 5829 5827 5825 5823 5821 5818 5816 5813 5811 5808 5806 5804 5801 5799 5797 5794 5792 5790
5822 5824 5827 5827 5828 5830 5830 5830 5830 5831 5832 5832 5832 5832 5831 5831 5831 5831 5829 5827 5827 5826 5825 5825 5824 5823 5822 5820 5818 5815 5813 5810 5808 5806 5804 5801 5799 5796 5794 5791 5789 5787 5785 5783
5814 5817 5817 5818 5819 5820 5821 5822 5823 5823 5824 5823 5824 5824 5823 5823 5823 5822 5821 5819 5818 5818 5818 5817 5816 5815 5813 5811 5809 5807 5805 5802 5800 5798 5796 5794 5791 5789 5786 5783 5781 5779 5777 5775
5806 5807 5809 5810 5811 5811 5813 5814 5815 5815 5815 5816 5816 5816 5815 5815 5815 5814 5814 5812 5810 5809 5809 5809 5808 5806 5805 5803 5801 5798 5796 5794 5792 5790 5788 5785 5783 5781 5778 5776 5774 5771 5769 5766
5797 5799 5801 5802 5803 5803 5805 5806 5807 5807 5807 5807 5808 5807 5807 5806 5806 5806 5805 5804 5802 5802 5801 5800 5799 5797 5796 5794 5792 5790 5788 5786 5783 5781 5779 5777 5775 5772 5770 5768 5766 5763 5760 5758
5788 5791 5792 5794 5795 5796 5797 5798 5798 5799 5799 5799 5799 5799 5799 5798 5798 5797 5796 5795 5794 5793 5792 5791 5790 5788 5787 5785 5783 5781 5779 5777 5775 5773 5770 5768 5766 5764 5761 5760 5757 5755 5752 5750
5780 5781 5783 5785 5786 5787 5788 5789 5790 5790 5791 5791 5791 5790 5790 5790 5789 5788 5787 5786 5785 5785 5784 5782 5781 5779 5777 5776 5774 5772 5770 5768 5766 5764 5761 5759 5757 5755 5753 5752 5749 5747 5744 5742
5772 5773 5775 5777 5779 5779 5780 5781 5781 5782 5782 5782 5782 5782 5782 5781 5780 5780 5779 5778 5777 5776 5775 5773 5772 5771 5769 5767 5765 5763 5761 5759 5757 5755 5753 5750 5748 5747 5745 5743 5741 5738 5736 5734
5763 5765 5767 5769 5770 5771 5771 5772 5773 5773 5773 5773 5773 5773 5773 5772 5772 5771 5771 5770 5769 5768 5767 5765 5763 5762 5760 5758 5756 5754 5752 5750 5748 5746 5744 5742 5740 5738 5736 5734 5731 5729 5727 5724
5756 5757 5759 5760 5761 5762 5763 5763 5764 5764 5765 5765 5765 5764 5764 5763 5763 5762 5762 5761 5761 5759 5758 5757 5755 5753 5751 5749 5747 5745 5743 5741 5739 5737 5735 5733 5731 5729 5726 5724 5722 5720 5717 5715
5748 5749 5750 5751 5752 5753 5754 5755 5755 5756 5756 5756 5756 5756 5755 5755 5754 5754 5753 5753 5752 5751 5749 5748 5746 5745 5742 5741 5739 5736 5734 5732 5730 5728 5726 5724 5722 5720 5718 5716 5713 5711 5709 5706
5740 5741 5742 5743 5744 5744 5745 5746 5746 5747 5747 5747 5747 5747 5747 5746 5746 5745 5745 5744 5743 5742 5741 5739 5738 5736 5735 5733 5730 5728 5726 5724 5722 5720 5718 5715 5713 5711 5709 5707 5705 5702 5700 5697
5732 5733 5734 5735 5735 5736 5736 5737 5738 5738 5738 5738 5739 5738 5738 5738 5738 5737 5737 5736 5735 5734 5732 5731 5729 5728 5726 5724 5721 5719 5717 5715 5713 5711 5709 5707 5705 5702 5700 5698 5696 5693 5691 5688
5724 5725 5726 5726 5727 5727 5728 5728 5729 5729 5729 5729 5730 5730 5730 5730 5730 5729 5729 5728 5727 5726 5724 5723 5721 5720 5718 5716 5713 5710 5708 5707 5705 5703 5701 5699 5697 5694 5692 5689 5687 5684 5682 5679
5717 5717 5718 5718 5719 5719 5719 5720 5720 5720 5721 5721 5721 5721 5722 5722 5721 5721 5720 5720 5719 5718 5716 5714 5713 5711 5709 5707 5705 5703 5701 5699 5697 5695 5693 5691 5689 5686 5684 5681 5679 5676 5673 5670
5709 5709 5710 5710 5711 5711 5711 5712 5712 5712 5713 5713 5714 5714 5714 5714 5713 5713 5712 5712 5711 5709 5708 5706 5705 5703 5701 5699 5697 5695 5693 5691 5689 5687 5685 5683 5681 5679 5676 5673 5671 5668 5665 5662
5701 5702 5703 5703 5703 5704 5704 5705 5705 5705 5706 5706 5706 5707 5707 5706 5706 5705 5705 5704 5703 5701 5700 5698 5697 5695 5693 5691 5689 5687 5685 5683 5681 5679 5677 5675 5673 5670 5668 5665 5662 5659 5657 5653
5695 5696 5696 5696 5697 5697 5697 5698 5698 5698 5698 5699 5699 5699 5699 5699 5699 5698 5697 5696 5695 5694 5692 5691 5689 5687 5685 5683 5681 5679 5678 5676 5674 5672 5669 5667 5664 5662 5660 5657 5654 5651 5648 5645
5689 5690 5690 5691 5690 5690 5691 5691 5691 5691 5692 5692 5692 5692 5692 5692 5691 5691 5689 5689 5688 5686 5685 5683 5681 5679 5677 5675 5673 5671 5670 5668 5666 5664 5661 5659 5657 5654 5651 5648 5646 5643 5640 5637
5684 5684 5684 5685 5684 5685 5685 5685 5685 5685 5686 5686 5686 5686 5686 5685 5684 5683 5682 5681 5680 5678 5677 5675 5674 5672 5670 5668 5666 5664 5662 5660 5658 5656 5654 5652 5649 5646 5643 5640 5638 5635 5632 5629
5678 5679 5679 5679 5680 5679 5679 5679 5680 5680 5680 5680 5680 5679 5679 5678 5678 5676 5675 5674 5673 5671 5669 5668 5666 5665 5663 5661 5659 5656 5654 5652 5651 5648 5646 5644 5641 5639 5636 5633 5630 5627 5624 5621